Regional Weather Roundup
Issued by NWS Sioux Falls, SD

Home | Current Version | Previous Version | Text Only | Print | Product List | Glossary On
Versions: 1 2 3 4 5 6 7 8 9 10 11 12 13 14 15 16 17 18 19 20 21 22 23 24 25 26 27 28 29 30 31 32 33 34 35 36 37 38 39 40 41 42 43 44 45 46 47 48 49 50
000
ASUS43 KFSD 022010
RWRFSD

WEATHER ROUNDUP FOR SE SOUTH DAKOTA/SW MINNESOTA/NW IOWA
NATIONAL WEATHER SERVICE SIOUX FALLS SD
300 PM CDT TUE SEP 02 2014

NOTE: "FAIR" INDICATES FEW OR NO CLOUDS BELOW 12,000 FEET WITH NO
SIGNIFICANT WEATHER AND OR OBSTRUCTIONS TO VISIBILITY.


SDZ038>040-050-052>070-022100-
SOUTHEAST SOUTH DAKOTA

CITY           SKY/WX    TMP DP  RH WIND       PRES   REMARKS
CHAMBERLAIN    SUNNY     79  53  39 S8        29.89F
HURON          SUNNY     78  50  37 SW10      29.88F
MADISON        FAIR      73  55  53 SW8       29.94F
MITCHELL       SUNNY     77  53  43 SW8       29.91F
SIOUX FALLS    MOSUNNY   74  58  57 SW6       29.94S
WINNER         FAIR      82  48  30 SW10      29.90F
YANKTON        SUNNY     75  54  46 W7        29.94S
$$

MNZ071-072-080-081-089-090-097-098-022100-
SOUTHWEST MINNESOTA

CITY           SKY/WX    TMP DP  RH WIND       PRES   REMARKS
FAIRMONT       MOSUNNY   73  54  49 W12       29.94S
JACKSON        MOSUNNY   73  54  49 W10G16    29.95S
LUVERNE        MOSUNNY   77  54  44 SW9       29.95S
MARSHALL       MOSUNNY   79  52  38 W15G23    29.89F
MONTEVIDEO     SUNNY     79  54  41 W9        29.89F
PIPESTONE      SUNNY     73  57  56 SW9       29.94F
REDWOOD FALLS  MOSUNNY   78  53  41 SW12      29.89F
TRACY          SUNNY     76  54  47 SW12G17   29.92S
WINDOM         MOSUNNY   75  57  53 SW8       29.94S
WORTHINGTON    MOSUNNY   73  55  53 SW10G17   29.96S
$$

IAZ001>003-012>014-020>022-031-032-NEZ013-014-SDZ071-022100-
NORTHWEST IOWA

CITY           SKY/WX    TMP DP  RH WIND       PRES   REMARKS
CHEROKEE       SUNNY     75  61  62 SW12      29.97S
DENISON        SUNNY     75  59  57 SW8G15    29.98S
ESTHERVILLE    SUNNY     75  57  53 SW12      29.95S
LE MARS        SUNNY     77  59  53 SW12      29.96F
ORANGE CITY    SUNNY     75  55  50 SW9G17    29.97S
SHELDON        MOSUNNY   75  61  60 S10       29.95S
SIOUX CITY     SUNNY     77  59  53 SW10      29.97S
SPENCER        SUNNY     76  57  51 W13       29.96S
STORM LAKE     SUNNY     73  63  68 W9        29.98S
$$

ABBREVIATIONS USED IN REMARKS
   TC - TEMPERATURE IN CELSIUS
  WCI - WIND CHILL INDEX
   HX - HEAT INDEX
  VSB - VISIBILITY



USA.gov is the U.S. government's official web portal to all federal, state and local government web resources and services.